This is the latest recevied weather packets stored in our database for station/object KM4KMS. If no packets are shown the sender has not sent any weather packets the latest 10 day(s).
| Time | Temp. | Humidity | Pressure | Rain* | Wind** | Luminosity | Snow |
|---|---|---|---|---|---|---|---|
| 1777930983 | 24.44° C | 53% | 1007.1 hPa | 0 mm | - | 261 W/m² | - |
| 1777930679 | 24.44° C | 53% | 1007.3 hPa | 0 mm | - | 225 W/m² | - |
| 1777930375 | 24.44° C | 53% | 1007.3 hPa | 0 mm | - | 154 W/m² | - |
| 1777930073 | 24.44° C | 51% | 1007.2 hPa | 0 mm | - | 118 W/m² | - |
| 1777929769 | 24.44° C | 52% | 1007.4 hPa | 0 mm | - | 366 W/m² | - |
| 1777929466 | 25° C | 51% | 1007.5 hPa | 0 mm | - | 466 W/m² | - |
| 1777929162 | 25.56° C | 50% | 1007.5 hPa | 0 mm | - | 432 W/m² | - |
| 1777928860 | 25.56° C | 48% | 1007.4 hPa | 0 mm | - | 477 W/m² | - |
| 1777928557 | 25° C | 50% | 1007.4 hPa | 0 mm | - | 449 W/m² | - |
| 1777928254 | 25° C | 47% | 1007.4 hPa | 0 mm | - | 471 W/m² | - |
| 1777927952 | 25° C | 50% | 1007.4 hPa | 0 mm | - | 323 W/m² | - |
| 1777927650 | 25° C | 48% | 1007.4 hPa | 0 mm | - | 433 W/m² | - |
| 1777927348 | 25° C | 51% | 1007.2 hPa | 0 mm | - | 511 W/m² | - |
| 1777927047 | 25° C | 48% | 1007.3 hPa | 0 mm | - | 538 W/m² | - |
| 1777926743 | 25° C | 51% | 1007.1 hPa | 0 mm | - | 526 W/m² | - |
| 1777926438 | 25.56° C | 50% | 1007.1 hPa | 0 mm | - | 481 W/m² | - |
| 1777926135 | 25.56° C | 51% | 1007.2 hPa | 0 mm | - | 546 W/m² | - |
| 1777925832 | 25° C | 51% | 1007.1 hPa | 0 mm | - | 554 W/m² | - |
| 1777925530 | 25° C | 52% | 1007.5 hPa | 0 mm | - | 298 W/m² | - |
| 1777925227 | 25° C | 50% | 1007.4 hPa | 0 mm | - | 288 W/m² | - |
| 1777924923 | 25° C | 52% | 1007.6 hPa | 0 mm | - | 621 W/m² | - |
| 1777924620 | 25° C | 50% | 1007.7 hPa | 0 mm | - | 633 W/m² | - |
| 1777924316 | 25° C | 49% | 1007.6 hPa | 0 mm | - | 658 W/m² | - |
| 1777924013 | 25.56° C | 54% | 1007.9 hPa | 0 mm | - | 628 W/m² | - |
| 1777923708 | 25° C | 52% | 1007.8 hPa | 0 mm | - | 623 W/m² | - |
* Rain latest hour (hover to see other rain measurements)
** Current wind speed in m/s (hover to see current wind gust speed)